Location: Newark
(7.0858°N, 171.3717°E)
Time: 07:15:27
(UTC+00:00)

Courier 1B - Pass Details

Date: 01 December 2020
Orbit: 962 x 1209 km, 28.3° (Epoch: 20 January)

Event Time Altitude Azimuth Distance (km) Brightness Sun altitude
Rises 08:06:23 0° 264° (W) 3,630 11.7 -26.4°
Reaches altitude 10° 08:09:17 10° 274° (W) 2,684 10.6 -27.1°
Maximum altitude 08:15:00 33° 336° (NNW) 1,580 8.5 -28.4°
Enters shadow 08:15:41 32° 349° (NNW) 1,605 8.5 -28.6°
Drops below altitude 10° 08:20:51 10° 39° (NE) 2,752 - -29.8°
Sets 08:23:52 0° 48° (NE) 3,735 - -30.5°
